Regional Weather Roundup
Issued by NWS

Home | Current Version | Previous Version | Graphics & Text | Print | Product List | Glossary Off
Versions: 1 2 3 4 5 6 7 8 9 10 11 12 13 14 15 16 17 18 19 20 21 22 23 24 25 26 27 28 29 30 31 32 33 34 35 36 37 38 39 40 41 42 43 44 45 46 47 48 49 50

805
ASUS43 KTOP 111259
RWRKS

WEATHER ROUNDUP FOR KANSAS
NATIONAL WEATHER SERVICE GOODLAND KS
700 AM CST THU FEB 11 2016

NOTE:  "FAIR" INDICATES FEW OR NO CLOUDS BELOW 12,000 FEET WITH NO
SIGNIFICANT WEATHER AND/OR OBSTRUCTIONS TO VISIBILITY.

KSZ001>006-013>018-027>032-041>047-111400-
NORTHWEST KANSAS

CITY           SKY/WX    TMP DP  RH WIND       PRES   REMARKS
GOODLAND       CLOUDY    27  21  78 SW9       30.15R
HAYS           CLOUDY    28  18  64 NE7       30.22R
HILL CITY      CLOUDY    24  22  91 E5        30.22R FOG
RUSSELL        CLOUDY    26  24  92 N10       30.21R WCI  16
$$

KSZ061>065-074>080-084>089-111400-
SOUTHWEST KANSAS

CITY           SKY/WX    TMP DP  RH WIND       PRES   REMARKS
DODGE CITY     CLOUDY    26  24  92 N9        30.18S
ELKHART          N/A     36  19  50 N7          N/A
GARDEN CITY    CLOUDY    24  22  91 NW7       30.19R
GREAT BEND     CLEAR     27  18  69 N7        30.21S
LIBERAL        CLOUDY    28  18  64 NW6       30.19R
$$

KSZ066>073-081>083-090>101-111400-
SOUTHEAST KANSAS

CITY           SKY/WX    TMP DP  RH WIND       PRES   REMARKS
CHANUTE        CLEAR     25  21  85 N8        30.20R
COFFEYVILLE    CLOUDY    27  21  78 N10       30.20R WCI  17
HUTCHINSON     PTCLDY    28  23  81 N10       30.21R WCI  19
MEDICINE LODGE   N/A     31  28  89 N5        30.18R
NEWTON         CLEAR     25  18  74 NE12      30.21R WCI  14
PARSONS        CLEAR     26  21  81 N7        30.20R
WICHITA INTL   PTCLDY    30  23  75 N15       30.19R WCI  19
WICHITA JABRA  CLEAR     26  22  84 N10       30.20R WCI  16
WICHITA MCCONL CLEAR     28  23  83 NE17      30.18R WCI  15
WINFIELD       CLEAR     31  24  75 N12       30.17R WCI  22
$$

KSZ007>012-019>026-033>040-048>060-102>105-111400-
NORTHEAST KANSAS

CITY           SKY/WX    TMP DP  RH WIND       PRES   REMARKS
CONCORDIA      CLOUDY    23  20  88 NE9       30.23S FOG
EMPORIA        CLOUDY    22  19  89 N8        30.22R
LAWRENCE       PTCLDY    21  17  84 NE8       30.26R
MANHATTAN      CLOUDY    26  23  88 NE8       30.27R
OLATHE IND     PTCLDY    22  18  85 NE8       30.24R
OLATHE EXE     PTCLDY    21  17  84 NE9       30.23R
SALINA         CLOUDY    28  23  81 N12       30.25R WCI  18
TOPEKA BILLARD CLOUDY    22  18  85 N6        30.27R
TOPEKA FORBES  CLOUDY    23  19  85 N8        30.25R
$$




USA.gov is the U.S. government's official web portal to all federal, state and local government web resources and services.